This is the latest recevied weather packets stored in our database for station/object W4RJG. If no packets are shown the sender has not sent any weather packets the latest 10 day(s).
| Time | Temp. | Humidity | Pressure | Rain* | Wind** | Luminosity | Snow |
|---|---|---|---|---|---|---|---|
| 1778128804 | 18.89° C | 95% | 1000.3 hPa | 1.27 mm | - | 0 W/m² | - |
| 1778126404 | 19.44° C | 93% | 1001.4 hPa | 0.25 mm | - | 0 W/m² | - |
| 1778119804 | 20.56° C | 84% | 1000 hPa | 0 mm | - | 0 W/m² | - |
| 1778116804 | 20.56° C | 84% | 1000.3 hPa | 0 mm | - | 0 W/m² | - |
| 1778104204 | 22.78° C | 76% | 999.7 hPa | 0 mm | - | 0 W/m² | - |
| 1778095804 | 20° C | 87% | 1000 hPa | 0 mm | - | 0 W/m² | - |
| 1778093403 | 20° C | 88% | 1001 hPa | 0 mm | - | 0 W/m² | - |
| 1778089804 | 19.44° C | 90% | 1002.4 hPa | 0.25 mm | - | 0 W/m² | - |
| 1778088604 | 18.89° C | 89% | 1002.7 hPa | 0 mm | - | 0 W/m² | - |
| 1778085004 | 18.89° C | 89% | 1002 hPa | 0.25 mm | - | 0 W/m² | - |
| 1778084404 | 18.89° C | 91% | 1002.3 hPa | 0.25 mm | - | 0 W/m² | - |
| 1778083804 | 18.33° C | 91% | 1002.4 hPa | 1.27 mm | - | 0 W/m² | - |
| 1778083204 | 17.78° C | 92% | 1002.4 hPa | 1.52 mm | - | 0 W/m² | - |
| 1778077205 | 18.33° C | 77% | 1002 hPa | 0 mm | - | 0 W/m² | - |
| 1778075404 | 19.44° C | 68% | 1002 hPa | 0 mm | - | 0 W/m² | - |
| 1778073004 | 18.33° C | 73% | 1002 hPa | 0 mm | - | 0 W/m² | - |
| 1778070005 | 18.33° C | 72% | 1002 hPa | 0 mm | - | 0 W/m² | - |
| 1778068804 | 17.78° C | 72% | 1001.7 hPa | 0 mm | - | 0 W/m² | - |
| 1778068204 | 17.78° C | 71% | 1001.7 hPa | 0 mm | - | 0 W/m² | - |
| 1778067604 | 17.78° C | 72% | 1001.7 hPa | 0 mm | - | 0 W/m² | - |
| 1778067004 | 17.78° C | 71% | 1001.4 hPa | 0 mm | - | 0 W/m² | - |
| 1778065804 | 17.78° C | 71% | 1001.4 hPa | 0 mm | - | 0 W/m² | - |
| 1778057404 | 17.78° C | 74% | 1002 hPa | 0 mm | - | 0 W/m² | - |
| 1778056204 | 17.78° C | 73% | 1002 hPa | 0 mm | - | 0 W/m² | - |
| 1778054404 | 17.78° C | 75% | 1002 hPa | 0 mm | - | 0 W/m² | - |
* Rain latest hour (hover to see other rain measurements)
** Current wind speed in m/s (hover to see current wind gust speed)